Scroll To Top

SPW Station Historical Data

Daily Summary for December 02, 2022 Units:  English    Metric   Both
Daily Weekly Monthly Yearly
  Current: High: Low: Average:
Temperature: 32.9 °F 32.9 °F 30.2 °F 31.5 °F
Dew Point: 25.5 °F 25.9 °F 25.1 °F 25.6 °F
Humidity: 74% 82% 73% 78%
Wind Speed: 17mph 17mph 11mph 13.4mph
Wind Gust: 17mph 19mph - -
WindSSW - - SSW
Pressure: 30.14 in 30.28 in 30.14 in -
Precipitation: 0.00 in      
 
 
Tabular Data for December 02, 2022
Time Temperature Dew Point Pressure Wind Wind Speed Wind Gust Humidity Rainfall Rate (Hourly) solar
00:15 30.3 °F 25.5 °F 30.28 in SSW 11 mph 13 mph 82% 0.00 in 0 W/m2
00:20 30.3 °F 25.5 °F 30.27 in SSW 12 mph 13 mph 82% 0.00 in 0 W/m2
00:30 30.2 °F 25.1 °F 30.26 in SSW 13 mph 13 mph 81% 0.00 in 0 W/m2
00:35 30.3 °F 25.5 °F 30.26 in SSW 13 mph 16 mph 82% 0.00 in 0 W/m2
00:40 30.5 °F 25.4 °F 30.26 in SSW 14 mph 15 mph 81% 0.00 in 0 W/m2
00:45 30.6 °F 25.5 °F 30.25 in SSW 14 mph 15 mph 81% 0.00 in 0 W/m2
00:50 30.7 °F 25.6 °F 30.26 in SSW 14 mph 14 mph 81% 0.00 in 0 W/m2
00:55 30.7 °F 25.3 °F 30.25 in SSW 14 mph 15 mph 80% 0.00 in 0 W/m2
01:00 30.8 °F 25.7 °F 30.25 in SSW 14 mph 15 mph 81% 0.00 in 0 W/m2
01:05 30.8 °F 25.7 °F 30.25 in SSW 14 mph 15 mph 81% 0.00 in 0 W/m2
01:10 30.8 °F 25.4 °F 30.25 in SSW 14 mph 14 mph 80% 0.00 in 0 W/m2
01:15 30.7 °F 25.3 °F 30.25 in SSW 15 mph 15 mph 80% 0.00 in 0 W/m2
01:20 30.7 °F 25.3 °F 30.25 in SSW 15 mph 15 mph 80% 0.00 in 0 W/m2
01:25 30.8 °F 25.4 °F 30.24 in SW 14 mph 15 mph 80% 0.00 in 0 W/m2
01:30 30.9 °F 25.5 °F 30.24 in SSW 15 mph 15 mph 80% 0.00 in 0 W/m2
01:35 30.9 °F 25.5 °F 30.24 in SW 15 mph 15 mph 80% 0.00 in 0 W/m2
01:40 30.9 °F 25.5 °F 30.23 in SSW 15 mph 16 mph 80% 0.00 in 0 W/m2
01:45 31 °F 25.6 °F 30.23 in SSW 16 mph 16 mph 80% 0.00 in 0 W/m2
01:50 31 °F 25.9 °F 30.23 in SSW 16 mph 16 mph 81% 0.00 in 0 W/m2
01:55 31 °F 25.6 °F 30.23 in SSW 15 mph 16 mph 80% 0.00 in 0 W/m2
02:01 31 °F 25.6 °F 30.23 in SSW 16 mph 16 mph 80% 0.00 in 0 W/m2
02:05 31.2 °F 25.7 °F 30.23 in SSW 15 mph 16 mph 80% 0.00 in 0 W/m2
02:15 31.3 °F 25.5 °F 30.24 in SSW 13 mph 14 mph 79% 0.00 in 0 W/m2
02:20 31.3 °F 25.5 °F 30.23 in SSW 13 mph 14 mph 79% 0.00 in 0 W/m2
02:25 31.3 °F 25.5 °F 30.23 in SSW 12 mph 13 mph 79% 0.00 in 0 W/m2
02:30 31.3 °F 25.5 °F 30.23 in SSW 12 mph 13 mph 79% 0.00 in 0 W/m2
02:35 31.3 °F 25.5 °F 30.23 in SW 12 mph 12 mph 79% 0.00 in 0 W/m2
02:40 31.3 °F 25.2 °F 30.24 in SSW 12 mph 12 mph 78% 0.00 in 0 W/m2
02:45 31.5 °F 25.7 °F 30.23 in SSW 11 mph 11 mph 79% 0.00 in 0 W/m2
02:50 31.6 °F 25.8 °F 30.23 in SSW 11 mph 12 mph 79% 0.00 in 0 W/m2
02:55 31.6 °F 25.8 °F 30.23 in SSW 11 mph 11 mph 79% 0.00 in 0 W/m2
03:00 31.5 °F 25.7 °F 30.23 in SSW 11 mph 11 mph 79% 0.00 in 0 W/m2
03:05 31.5 °F 25.7 °F 30.23 in SSW 11 mph 11 mph 79% 0.00 in 0 W/m2
03:10 31.5 °F 25.7 °F 30.23 in SSW 11 mph 11 mph 79% 0.00 in 0 W/m2
03:15 31.5 °F 25.7 °F 30.23 in SSW 11 mph 11 mph 79% 0.00 in 0 W/m2
03:20 31.6 °F 25.8 °F 30.22 in SSW 11 mph 11 mph 79% 0.00 in 0 W/m2
03:26 31.7 °F 25.9 °F 30.22 in SW 11 mph 11 mph 79% 0.00 in 0 W/m2
03:30 31.8 °F 25.7 °F 30.22 in SSW 11 mph 11 mph 78% 0.00 in 0 W/m2
03:35 31.8 °F 25.7 °F 30.21 in SSW 11 mph 11 mph 78% 0.00 in 0 W/m2
03:40 31.8 °F 25.4 °F 30.21 in SSW 12 mph 12 mph 77% 0.00 in 0 W/m2
03:45 31.8 °F 25.4 °F 30.21 in SSW 12 mph 12 mph 77% 0.00 in 0 W/m2
03:51 31.8 °F 25.4 °F 30.21 in SSW 11 mph 11 mph 77% 0.00 in 0 W/m2
03:55 31.9 °F 25.5 °F 30.21 in SSW 11 mph 12 mph 77% 0.00 in 0 W/m2
04:00 32 °F 25.6 °F 30.21 in SSW 11 mph 11 mph 77% 0.00 in 0 W/m2
04:05 32.1 °F 25.7 °F 30.21 in SSW 11 mph 11 mph 77% 0.00 in 0 W/m2
04:10 32.2 °F 25.8 °F 30.20 in SSW 11 mph 11 mph 77% 0.00 in 0 W/m2
04:15 32.1 °F 25.7 °F 30.20 in SSW 12 mph 12 mph 77% 0.00 in 0 W/m2
04:20 32.2 °F 25.8 °F 30.20 in SSW 12 mph 12 mph 77% 0.00 in 0 W/m2
04:25 32.2 °F 25.8 °F 30.19 in SSW 12 mph 12 mph 77% 0.00 in 0 W/m2
04:40 32.4 °F 25.7 °F 30.18 in SSW 13 mph 14 mph 76% 0.00 in 0 W/m2
04:45 32.4 °F 25.7 °F 30.17 in SSW 14 mph 14 mph 76% 0.00 in 0 W/m2
04:50 32.4 °F 25.7 °F 30.16 in SSW 15 mph 16 mph 76% 0.00 in 0 W/m2
04:55 32.5 °F 25.5 °F 30.16 in SSW 16 mph 18 mph 75% 0.00 in 0 W/m2
05:00 32.5 °F 25.5 °F 30.15 in SSW 16 mph 16 mph 75% 0.00 in 0 W/m2
05:05 32.5 °F 25.5 °F 30.15 in SSW 17 mph 17 mph 75% 0.00 in 0 W/m2
05:10 32.6 °F 25.6 °F 30.15 in SSW 17 mph 17 mph 75% 0.00 in 0 W/m2
05:16 32.8 °F 25.7 °F 30.15 in SSW 17 mph 17 mph 75% 0.00 in 0 W/m2
05:20 32.9 °F 25.2 °F 30.15 in SSW 16 mph 18 mph 73% 0.00 in 0 W/m2
05:25 32.9 °F 25.5 °F 30.14 in SSW 16 mph 19 mph 74% 0.00 in 0 W/m2
05:35 32.8 °F 25.1 °F 30.14 in SSW 17 mph 17 mph 73% 0.00 in 0 W/m2
05:40 32.9 °F 25.5 °F 30.14 in SSW 17 mph 17 mph 74% 0.00 in 0 W/m2
Compliments of Weather Underground - 2 mb